SITRO-AIS-54

operational
NORAD ID: 59777 Int'l Des: 2024-092 Owner: SITRO Country: RU
LEOCIRCULARRETROGRADESSO

SITRO-AIS-54について

説明を読み込み中...

リアルタイム位置

3D地球を読み込み中...

次回通過

高度履歴

Altitude vs Time

uPlot chart will show altitude changes over time

軌道要素

1 59777U 24092E 25340.80872843 .00029123 00000-0 10418-2 0 9999
2 59777 97.6384 102.3957 0009457 110.5688 249.6567 15.28711794 86272
Epoch: Dec 6, 2025 • Age: 19 hours

現在のステータス

高度 481.9 km
速度 7.63 km/s
衛星直下点 19.44°N, 168.71°E
打ち上げ日 May 16, 2024
運用期間 1.5 years
タイプ other

技術仕様

分類 Payload
質量 3.00 kg
乾燥質量 3.00 kg
総質量 3.00 kg
長さ 0.30 m
直径 0.10 m
スパン 0.30 m
形状 Box
製造者 SPUT
バスタイプ Cubesat 3U
フェーズステータス In Orbit
所有者/国 SITRO/RU

大規模コンステレーション

Loading constellations...